This is the latest recevied weather packets stored in our database for station/object DG1JLA-3. If no packets are shown the sender has not sent any weather packets the latest 10 day(s).
| Time | Temp. | Humidity | Pressure | Rain* | Wind** | Luminosity | Snow |
|---|---|---|---|---|---|---|---|
| 1777720201 | 23.33° C | 35% | 1024.7 hPa | 0 mm | - | - | - |
| 1777719902 | 23.89° C | 34% | 1024.9 hPa | 0 mm | - | - | - |
| 1777719602 | 23.89° C | 33% | 1024.9 hPa | 0 mm | - | - | - |
| 1777719301 | 23.89° C | 33% | 1024.8 hPa | 0 mm | - | - | - |
| 1777719002 | 23.33° C | 34% | 1025 hPa | 0 mm | - | - | - |
| 1777718702 | 23.33° C | 34% | 1024.9 hPa | 0 mm | - | - | - |
| 1777718402 | 23.33° C | 33% | 1024.9 hPa | 0 mm | - | - | - |
| 1777718102 | 23.33° C | 35% | 1025 hPa | 0 mm | - | - | - |
| 1777717802 | 23.33° C | 33% | 1025.1 hPa | 0 mm | - | - | - |
| 1777717502 | 23.89° C | 36% | 1025.1 hPa | 0 mm | - | - | - |
| 1777717202 | 23.89° C | 33% | 1025.1 hPa | 0 mm | - | - | - |
| 1777716902 | 23.89° C | 33% | 1025.3 hPa | 0 mm | - | - | - |
| 1777716602 | 23.89° C | 36% | 1025.2 hPa | 0 mm | - | - | - |
| 1777716302 | 23.33° C | 37% | 1025.2 hPa | 0 mm | - | - | - |
| 1777716002 | 23.89° C | 35% | 1025.4 hPa | 0 mm | - | - | - |
| 1777715702 | 23.33° C | 37% | 1025.4 hPa | 0 mm | - | - | - |
| 1777715402 | 22.78° C | 37% | 1025.5 hPa | 0 mm | - | - | - |
| 1777715102 | 23.33° C | 37% | 1025.6 hPa | 0 mm | - | - | - |
| 1777714802 | 23.33° C | 37% | 1025.6 hPa | 0 mm | - | - | - |
| 1777714502 | 22.78° C | 38% | 1025.7 hPa | 0 mm | - | - | - |
| 1777714202 | 22.78° C | 37% | 1025.7 hPa | 0 mm | - | - | - |
| 1777713902 | 22.22° C | 40% | 1025.8 hPa | 0 mm | - | - | - |
| 1777713602 | 21.67° C | 40% | 1025.8 hPa | 0 mm | - | - | - |
| 1777713302 | 21.67° C | 37% | 1025.7 hPa | 0 mm | - | - | - |
| 1777713002 | 22.22° C | 38% | 1025.9 hPa | 0 mm | - | - | - |
* Rain latest hour (hover to see other rain measurements)
** Current wind speed in m/s (hover to see current wind gust speed)